Regional Weather Roundup
Issued by NWS Midland/Odessa, TX

Home | Current Version | Previous Version | Text Only | Print | Product List | Glossary On
Versions: 1 2 3 4 5 6 7 8 9 10 11 12 13 14 15 16 17 18 19 20 21 22 23 24 25 26 27 28 29 30 31 32 33 34 35 36 37 38 39 40 41 42 43 44 45 46 47 48 49 50
000
ASUS44 KMAF 030310
RWRMAF
MIDLAND AREA WEATHER ROUNDUP
NATIONAL WEATHER SERVICE MIDLAND TX
1000 PM CDT SUN AUG 02 2015

...IN SOUTHWEST TEXAS AND SOUTHEAST NEW MEXICO...

CITY           SKY/WX    TMP DP  RH WIND       PRES   REMARKS
ALPINE         PTCLDY    75  58  57 SE3       30.09R
ANDREWS        LGT RAIN  74  68  82 W3        30.00R
ARTESIA        MOCLDY    86  55  35 SW9       29.95R
BIG SPRING     CLOUDY    73  62  68 W13G18    29.99R THUNDER
CARLSBAD       MOCLDY    87  57  35 W6        29.92R
DRYDEN           N/A     90  59  35 SE6       29.89R
FORT STOCKTON  CLEAR     88  56  33 SE12      29.94R
GUAD PASS      MOCLDY    79  54  41 CALM      30.12S
HOBBS            N/A    N/A N/A N/A MISG        N/A
MARFA          PTCLDY    79  54  41 E5        30.08R
MIDLAND AIRPK  PTCLDY    83  63  50 E14       29.95R
MIDLAND INTL   PTCLDY    86  61  42 E18       29.94R
ODESSA         PTCLDY    85  59  41 E13       29.96R
PECOS          PTCLDY    87  61  41 CALM      29.89R
PRESIDIO       CLOUDY    94  53  25 E5        29.87R
SEMINOLE       MOCLDY    79  61  53 S8        30.00R
SNYDER         MOCLDY    81  64  55 S6        29.94R
WINK           MOCLDY    79  65  62 E13       29.92R
$$
...OTHER STATIONS IN TEXAS...

CITY           SKY/WX    TMP DP  RH WIND       PRES   REMARKS
ABILENE        PTCLDY    83  62  49 SE7       29.92R
AMARILLO       CLOUDY    76  70  82 SE9       29.99R
AUSTIN         PTCLDY    84  61  45 SE6       29.86R
BROWNSVILLE    CLEAR     80  76  87 SE7       29.86R
CORPUS CHRISTI PTCLDY    82  73  74 SE7       29.85S
DALLAS FTW     PTCLDY    87  56  34 SE7       29.86R
DEL RIO        CLEAR     90  60  36 SE8       29.83R
EL PASO        TSTM      75  61  61 N3        30.00R
HOUSTON INT    CLEAR     85  66  53 S5        29.86R
LUBBOCK        MOCLDY    82  62  50 S12       29.96R
SAN ANGELO     CLEAR     88  59  37 SE7       29.90R
SAN ANTONIO    CLEAR     85  60  42 SE8       29.87R
WACO           CLEAR     84  57  39 E6        29.86R
WICHITA FALLS  NOT AVBL
$$
...OTHER LOCATIONS IN NEW MEXICO...

CITY           SKY/WX    TMP DP  RH WIND       PRES   REMARKS
ALAMAGORDO     PTCLDY    81  57  44 NE9       30.01R
ALBUQUERQUE    MOCLDY    74  54  49 W5        30.12R
CANNON AFB     CLOUDY    70  59  68 SE13      30.01S
CLOVIS         CLOUDY    72  59  64 S15       30.03S
HOLLOMAN AFB   PTCLDY    83  57  41 E5        29.98R
ROSWELL        CLOUDY    86  56  35 NW9       29.96R
RUIDOSO          N/A    N/A N/A N/A MISG        N/A
SANTA FE       MOCLDY    67  53  61 N10       30.17S
TRUTH OR CONSE PTCLDY    76  57  51 NW5       30.05R
TUCUMCARI      CLOUDY    70  61  73 VRB3      30.00S
$$



USA.gov is the U.S. government's official web portal to all federal, state and local government web resources and services.